Regional Weather Roundup
Issued by NWS

Home | Current Version | Previous Version | Text Only | Print | Product List | Glossary On
Versions: 1 2 3 4 5 6 7 8 9 10 11 12 13 14 15 16 17 18 19 20 21 22 23 24 25 26 27 28 29 30 31 32 33 34 35 36 37 38 39 40 41 42 43 44 45 46 47 48 49 50
000
ASUS43 KTOP 020608
RWRKS

WEATHER ROUNDUP FOR KANSAS
NATIONAL WEATHER SERVICE GOODLAND KS
1200 AM CST MON MAR 02 2015

NOTE:  "FAIR" INDICATES FEW OR NO CLOUDS BELOW 12,000 FEET WITH NO
SIGNIFICANT WEATHER AND/OR OBSTRUCTIONS TO VISIBILITY.

KSZ001>006-013>018-027>032-041>047-020700-
NORTHWEST KANSAS

CITY           SKY/WX    TMP DP  RH WIND       PRES   REMARKS
GOODLAND       CLOUDY    30  21  69 S8        30.33F
6HR MIN TEMP:  30; 6HR MAX TEMP:  32; 6HR PCP: TRACE;

HAYS           MOCLDY    25  12  58 W3        30.44F
HILL CITY      CLOUDY    30  21  69 SW3       30.42S
6HR MIN TEMP:  30; 6HR MAX TEMP:  35;

RUSSELL        MOCLDY    23  20  88 SW6       30.44R
6HR MIN TEMP:  23; 6HR MAX TEMP:  33;

$$

KSZ061>065-074>080-084>089-020700-
SOUTHWEST KANSAS

CITY           SKY/WX    TMP DP  RH WIND       PRES   REMARKS
DODGE CITY     PTCLDY    22  17  81 SW3       30.42S
6HR MIN TEMP:  21; 6HR MAX TEMP:  30;

ELKHART          N/A     25  20  82 SE6         N/A
GARDEN CITY    PTCLDY    24  20  84 E5        30.39S
6HR MIN TEMP:  20; 6HR MAX TEMP:  28;

GREAT BEND     PTCLDY    21  14  73 W3        30.46R
LIBERAL        CLOUDY    28  21  74 SW3       30.41F
PRATT          PTCLDY    25  21  86 CALM      30.46R
$$

KSZ066>073-081>083-090>101-020700-
SOUTHEAST KANSAS

CITY           SKY/WX    TMP DP  RH WIND       PRES   REMARKS
CHANUTE        PTCLDY    20  17  88 CALM      30.48F
6HR MIN TEMP:  17; 6HR MAX TEMP:  31;

COFFEYVILLE    PTCLDY    22  19  89 N3        30.50S
6HR MIN TEMP:  22; 6HR MAX TEMP:  31;

HUTCHINSON     PTCLDY    20  16  84 NW3       30.46S
6HR MIN TEMP:  18; 6HR MAX TEMP:  33;

MEDICINE LODGE   N/A     23  20  88 S3        30.47R
NEWTON         CLEAR     21  16  79 CALM      30.47S
PARSONS        PTCLDY    18  16  92 CALM      30.50S
6HR MIN TEMP:  18; 6HR MAX TEMP:  32;

WICHITA INTL   PTCLDY    20  16  84 NW5       30.47S FOG
6HR MIN TEMP:  17; 6HR MAX TEMP:  31;

WICHITA JABRA  CLEAR     22  17  81 N3        30.47R
6HR MIN TEMP:  20; 6HR MAX TEMP:  29;

WICHITA MCCONL PTCLDY    23  19  84 N3        30.47R
WINFIELD       CLEAR     19  16  88 CALM      30.48F
6HR MIN TEMP:  17; 6HR MAX TEMP:  30;

$$

KSZ007>012-019>026-033>040-048>060-102>105-020700-
NORTHEAST KANSAS

CITY           SKY/WX    TMP DP  RH WIND       PRES   REMARKS
CONCORDIA      MOCLDY    30  22  72 SW7       30.45R
6HR MIN TEMP:  27; 6HR MAX TEMP:  33;

EMPORIA        PTCLDY    20  17  88 W3        30.48R
6HR MIN TEMP:  20; 6HR MAX TEMP:  31;

LAWRENCE       PTCLDY    19  16  88 CALM      30.51R
6HR MIN TEMP:  19; 6HR MAX TEMP:  32;

MANHATTAN      CLEAR     21  19  92 CALM      30.50R
6HR MIN TEMP:  21; 6HR MAX TEMP:  34;

MARYSVILLE     MOCLDY    30  23  74 CALM      30.48R
OLATHE IND     PTCLDY    22  19  89 CALM      30.50R
6HR MIN TEMP:  20; 6HR MAX TEMP:  31;

OLATHE EXE     PTCLDY    23  20  88 CALM      30.48R
6HR MIN TEMP:  21; 6HR MAX TEMP:  32;

SALINA         PTCLDY    22  18  85 SW6       30.48R
6HR MIN TEMP:  20; 6HR MAX TEMP:  34;

TOPEKA BILLARD PTCLDY    23  19  85 CALM      30.50R
6HR MIN TEMP:  22; 6HR MAX TEMP:  33;

TOPEKA FORBES  PTCLDY    22  18  85 CALM      30.48R
6HR MIN TEMP:  21; 6HR MAX TEMP:  32;

$$


USA.gov is the U.S. government's official web portal to all federal, state and local government web resources and services.